Weather Roundup
Issued by NWS Corpus Christi, TX

Home | Current Version | Previous Version | Text Only | Print | Product List | Glossary Off
Versions: 1 2 3 4 5 6 7 8 9 10 11 12 13 14 15 16 17 18 19 20 21 22 23 24 25 26 27 28 29 30 31 32 33 34 35 36 37 38 39 40 41 42 43 44 45 46 47 48 49 50

000
ASUS44 KCRP 010910
HRRCRP

SOUTH TEXAS REGIONAL WEATHER ROUNDUP
NATIONAL WEATHER SERVICE CORPUS CHRISTI TX
400 AM CDT SAT NOV 01 2014


TXZ229>244-011000-
...CORPUS CHRISTI AREA OBSERVATIONS...

CITY           SKY/WX    TMP DP  RH WIND       PRES   REMARKS
CORPUS CHRISTI CLEAR     60  47  61 NE15      30.27R
NAS CORPUS CHR CLEAR     63  53  70 NE18      30.25S
ROCKPORT       CLEAR     58  46  64 N12       30.27S
KINGSVILLE NAS CLEAR     55  50  83 N9        30.27S
ALICE          CLEAR     55  47  74 NE8       30.27S
FALFURRIAS     CLEAR     55  47  74 N7        30.26S
$$

...VICTORIA AREA OBSERVATIONS...

CITY           SKY/WX    TMP DP  RH WIND       PRES   REMARKS
VICTORIA       CLEAR     51  42  71 N7        30.29S
BEEVILLE       FAIR      56  44  64 NE12      30.28F
PLEASANTON     CLEAR     52  43  73 NE7       30.31S
SAN ANTONIO    CLEAR     53  41  63 NE8       30.33S
$$

...LAREDO AREA OBSERVATIONS...

CITY           SKY/WX    TMP DP  RH WIND       PRES   REMARKS
LAREDO         CLEAR     58  45  62 NE9       30.30S
COTULLA        CLEAR     57  44  62 E7        30.30R
DEL RIO        CLEAR     55  38  52 E8        30.29R
MCALLEN        CLEAR     61  50  67 N10       30.24S
HEBBRONVILLE   CLEAR     55  45  71 NE5       30.29S
$$

...OTHER TEXAS OBSERVATIONS...

CITY           SKY/WX    TMP DP  RH WIND       PRES   REMARKS
BROWNSVILLE    CLEAR     61  55  81 NW6       30.21S
HOUSTON        CLEAR     50  44  80 CALM      30.29F
COL. STATION   CLEAR     50  40  68 N12       30.32S
AUSTIN         CLEAR     44  39  82 N8        30.34R
WACO           CLEAR     42  34  73 N5        30.37R
FORT WORTH     CLEAR     41  29  62 N7        30.37S
WICHITA FALLS  CLEAR     36  27  69 NE5       30.38R
LUBBOCK        PTCLDY    37  30  75 E8        30.31S
EL PASO        MOCLDY    59  35  40 NW5       30.16F
$$

...MARINE OBSERVATIONS...

STATION/POSITION TIME  SKY/WX   TEMP    WIND        PRES    VSBY  WAVE   SWELL
                                AIR SEA DIR/SP/G                  HT/PER HT/PER
                 (UTC)          (F)     (DEG/KT/KT) (MB)    (MI)  (FT/S) (FT/S)
PORT ARANSAS     0900            63 77  360/ 17/ 19 1025.1R
BUOY 90 E PORT A 0900            69 79   30/ 16/ 19 1023.7R         5/ 6
BUOY 45 SE BAFFI 0900            73 80   50/ 16/ 19 1022.6F         5/ 6
BUOY 200 E PT IS 0900            74 80   40/ 19/ 23 1020.7F         6/ 6
BUOY 15 E GALVES 0900            64 76   50/ 19/ 25 1023.9S         4/ 5
$$



USA.gov is the U.S. government's official web portal to all federal, state and local government web resources and services.